LRTM Weather Reports


time (UTC)temp
C
wind
direction
speed
KPH
gust
KPH
rain 1hr
cm
rain 24hr
cm
rain mn
cm
humidity
%
barometer
mb
20260508033326 13 360 1.6 0.0 0.00 0.00 0.00 94 1015.0
20260508031827 13 360 1.6 0.0 0.00 0.00 0.00 94 1015.0
20260508030327 13 360 1.6 0.0 0.00 0.00 0.00 94 1015.0
20260508024826 13 340 1.6 0.0 0.00 0.00 0.00 94 1015.0
20260508023327 13 340 1.6 0.0 0.00 0.00 0.00 94 1015.0
20260508021827 13 0 0.0 0.0 0.00 0.00 0.00 94 1015.0
20260508020326 13 0 0.0 0.0 0.00 0.00 0.00 94 1015.0
20260508014826 13 0 0.0 0.0 0.00 0.00 0.00 94 1015.0
20260508013326 13 0 0.0 0.0 0.00 0.00 0.00 94 1015.0
20260508011826 15 210 1.6 0.0 0.00 0.00 0.00 88 1015.0
20260508010326 15 210 1.6 0.0 0.00 0.00 0.00 88 1015.0
20260508004827 15 0 0.0 0.0 0.00 0.00 0.00 88 1015.0
20260508003326 15 0 0.0 0.0 0.00 0.00 0.00 88 1015.0
20260508001825 15 190 3.2 0.0 0.00 0.00 0.00 88 1015.0
20260508000327 15 190 3.2 0.0 0.00 0.00 0.00 88 1015.0
20260507234827 15 250 1.6 0.0 0.00 0.00 0.00 88 1015.0
20260507233326 15 250 1.6 0.0 0.00 0.00 0.00 88 1015.0
20260507231826 15 250 1.6 0.0 0.00 0.00 0.00 88 1015.0
20260507230326 15 250 1.6 0.0 0.00 0.00 0.00 88 1015.0
20260507224826 15 250 8.0 0.0 0.00 0.00 0.00 94 1015.0
20260507223444 15 250 8.0 0.0 0.00 0.00 0.00 94 1015.0
20260507221826 15 240 8.0 0.0 0.00 0.00 0.00 94 1015.0
20260507220326 15 240 8.0 0.0 0.00 0.00 0.00 94 1015.0
20260507214826 16 210 1.6 0.0 0.00 0.00 0.00 88 1015.0
20260507213328 16 210 1.6 0.0 0.00 0.00 0.00 88 1015.0
20260507211826 16 230 9.7 0.0 0.00 0.00 0.00 94 1015.0
20260507210327 16 230 9.7 0.0 0.00 0.00 0.00 94 1015.0
20260507204826 16 240 9.7 0.0 0.00 0.00 0.00 88 1015.0
20260507203326 16 240 9.7 0.0 0.00 0.00 0.00 88 1015.0
20260507201826 16 230 14.5 0.0 0.00 0.00 0.00 88 1015.0
20260507200327 16 230 14.5 0.0 0.00 0.00 0.00 88 1015.0
20260507194832 16 240 11.3 0.0 0.00 0.00 0.00 83 1015.0
20260507193326 16 240 11.3 0.0 0.00 0.00 0.00 83 1015.0
20260507191826 17 250 3.2 0.0 0.00 0.00 0.00 73 1014.0
20260507190327 17 250 3.2 0.0 0.00 0.00 0.00 73 1014.0
20260507184828 17 1.6 0.0 0.00 0.00 0.00 73 1014.0
20260507183326 17 1.6 0.0 0.00 0.00 0.00 73 1014.0
20260507181826 18 1.6 0.0 0.00 0.00 0.00 68 1014.0
20260507180326 18 1.6 0.0 0.00 0.00 0.00 68 1014.0
20260507174826 20 280 4.8 0.0 0.00 0.00 0.00 64 1013.0
20260507173327 20 280 4.8 0.0 0.00 0.00 0.00 64 1013.0
20260507171827 20 300 8.0 0.0 0.00 0.00 0.00 60 1013.0
20260507170326 20 300 8.0 0.0 0.00 0.00 0.00 60 1013.0
20260507164827 21 290 8.0 0.0 0.00 0.00 0.00 57 1013.0
20260507163326 21 290 8.0 0.0 0.00 0.00 0.00 57 1013.0
20260507161826 22 290 4.8 0.0 0.00 0.00 0.00 53 1013.0
20260507160326 22 290 4.8 0.0 0.00 0.00 0.00 53 1013.0
20260507154826 22 280 9.7 0.0 0.00 0.00 0.00 47 1013.0
20260507153326 22 280 9.7 0.0 0.00 0.00 0.00 47 1013.0
20260507151826 22 270 12.9 0.0 0.00 0.00 0.00 50 1013.0
20260507150326 22 270 12.9 0.0 0.00 0.00 0.00 50 1013.0
20260507144826 22 250 22.5 0.0 0.00 0.00 0.00 50 1013.0
20260507143328 22 250 22.5 0.0 0.00 0.00 0.00 50 1013.0
20260507141826 22 240 27.4 0.0 0.00 0.00 0.00 50 1013.0
20260507140326 22 240 27.4 0.0 0.00 0.00 0.00 50 1013.0
20260507134827 23 250 12.9 0.0 0.00 0.00 0.00 50 1013.0
20260507133326 23 250 12.9 0.0 0.00 0.00 0.00 50 1013.0
20260507131823 22 320 11.3 0.0 0.00 0.00 0.00 44 1012.0
20260507130326 22 320 11.3 0.0 0.00 0.00 0.00 44 1012.0
20260507123404 26 4.8 0.0 0.00 0.00 0.00 34 1013.0
20260507121826 26 4.8 0.0 0.00 0.00 0.00 37 1013.0
20260507120326 26 4.8 0.0 0.00 0.00 0.00 37 1013.0
20260507114826 27 4.8 0.0 0.00 0.00 0.00 32 1013.0
20260507113344 27 280 8.0 0.0 0.00 0.00 0.00 32 1013.0
20260507111826 27 280 8.0 0.0 0.00 0.00 0.00 32 1013.0
20260507110326 27 280 8.0 0.0 0.00 0.00 0.00 32 1013.0
20260507104826 26 3.2 0.0 0.00 0.00 0.00 37 1014.0
20260507103326 26 3.2 0.0 0.00 0.00 0.00 37 1014.0
20260507101826 25 240 9.7 0.0 0.00 0.00 0.00 39 1014.0
20260507100327 25 240 9.7 0.0 0.00 0.00 0.00 39 1014.0
20260507094826 25 8.0 0.0 0.00 0.00 0.00 36 1014.0
20260507093327 25 8.0 0.0 0.00 0.00 0.00 36 1014.0
20260507091828 23 4.8 0.0 0.00 0.00 0.00 41 1014.0
20260507090326 23 4.8 0.0 0.00 0.00 0.00 41 1014.0
20260507084826 23 4.8 0.0 0.00 0.00 0.00 47 1014.0
20260507083327 23 4.8 0.0 0.00 0.00 0.00 47 1014.0
20260507081826 21 100 8.0 0.0 0.00 0.00 0.00 53 1014.0
20260507080327 21 100 8.0 0.0 0.00 0.00 0.00 53 1014.0
20260507074827 22 110 11.3 0.0 0.00 0.00 0.00 47 1014.0
20260507073326 22 110 11.3 0.0 0.00 0.00 0.00 47 1014.0
20260507071826 20 4.8 0.0 0.00 0.00 0.00 56 1015.0
20260507070326 20 4.8 0.0 0.00 0.00 0.00 56 1015.0
20260507064826 17 60 4.8 0.0 0.00 0.00 0.00 60 1015.0
20260507063326 17 60 4.8 0.0 0.00 0.00 0.00 60 1015.0
20260507061836 16 80 8.0 0.0 0.00 0.00 0.00 68 1015.0
20260507060326 16 80 8.0 0.0 0.00 0.00 0.00 68 1015.0
20260507054826 15 60 11.3 0.0 0.00 0.00 0.00 68 1015.0
20260507053333 15 60 11.3 0.0 0.00 0.00 0.00 68 1015.0
20260507051827 12 80 11.3 0.0 0.00 0.00 0.00 77 1015.0
20260507050326 12 80 11.3 0.0 0.00 0.00 0.00 77 1015.0
20260507044823 12 90 11.3 0.0 0.00 0.00 0.00 77 1014.0
20260507043326 12 90 11.3 0.0 0.00 0.00 0.00 77 1014.0
20260507041826 11 100 11.3 0.0 0.00 0.00 0.00 82 1014.0
20260507040326 11 100 11.3 0.0 0.00 0.00 0.00 82 1014.0
20260507034823 11 100 11.3 0.0 0.00 0.00 0.00 77 1014.0